Main page
Satellite images Climate Cyclones Lightning AirportsFAQ Languages Contact Newsletter About
Weather : Europe Africa North America South America Asia Australia-Oceania Others

pattaya-th, Hua Hin, Hua Hin Airport

48475

latitude: , longitude: Thailand, elevation: 12-35N m


METAR: VTPH 171100Z VRB01KT 9999 -RA SCT028 BKN100 27/25 Q1001 NOSIG